Location: Proctor
(47.8934°N, 114.3048°W)
Time: 07:06:09
(UTC+00:00)

Envisat - Pass Details

Date: 24 May 2024
Orbit: 762 x 764 km, 98.3° (Epoch: 13 June)

Event Time Altitude Azimuth Distance (km) Brightness Sun altitude
Rises 10:54:04 0° 15° (NNE) 3,239 7.4 -7.9°
Reaches altitude 10° 10:56:24 10° 18° (NNE) 2,308 6.6 -7.7°
Maximum altitude 11:01:29 72° 103° (ESE) 804 3.3 -7.0°
Drops below altitude 10° 11:06:31 10° 188° (S) 2,291 5.0 -6.4°
Sets 11:08:49 0° 190° (S) 3,212 5.8 -6.1°
